Monte Cimone, Italy

6:22 AM CET on February 20, 2017 (GMT +0100)
Monte Cimone

Weather History for LIVC - October, 2012

Change the Weather History Date:

Thursday, October 18, 2012

  Actual Average Record
Temperature  
Mean Temperature 48 °F -  
Max Temperature 53 °F 38 °F 54 °F (2013)
Min Temperature 44 °F 30 °F 21 °F (2003)
Degree Days  
Heating Degree Days 16    
Moisture  
Dew Point 9 °F    
Average Humidity 21    
Maximum Humidity 43    
Minimum Humidity 4    
Precipitation  
Precipitation 0.00 in 0.11 in - ()
Sea Level Pressure  
Sea Level Pressure 30.30 in    
Wind  
Wind Speed 18 mph ()    
Max Wind Speed 29 mph    
Max Gust Speed -    
Visibility 19.0 miles    
Events      
Averages and records for this station are not official NWS values.
T = Trace of Precipitation, MM = Missing Value Source: Averaged Metar Reports

Daily Weather History Graph

Daily Weather History Graph

Search for Another Location

Airport or City:

Trip Planner

Search our weather history database for the weather conditions in past years. The results will help you decide how hot, cold, wet, or windy it might be!

Date:

Astronomy

Oct. 18, 2012 Rise Set
Actual Time 7:36 AM CEST 6:27 PM CEST
Civil Twilight 7:06 AM CEST 6:57 PM CEST
Nautical Twilight 6:33 AM CEST 7:30 PM CEST
Astronomical Twilight 5:59 AM CEST 8:04 PM CEST
Moon 11:07 AM CEST (10/18) 8:37 PM CEST (10/18)
Length of Visible Light 11h 50m
Length of Day
10h 51m
Waxing Crescent, 12% of the Moon is Illuminated
Oct 18
Waxing Crescent
Oct 22
First Quarter
Oct 29
Full
Nov 7
Last Quarter
Nov 13
New

Hourly Weather History & Observations

Time (CEST) Temp. Windchill Dew Point Humidity Pressure Visibility Wind Dir Wind Speed Gust Speed Precip Events Conditions
12:55 AM 44.6 °F 36.4 °F 19.4 °F 37% 30.33 in - West 20.7 mph - N/A   Clear
1:55 AM 44.6 °F 35.9 °F 23.0 °F 43% 30.30 in - West 23.0 mph - N/A   Clear
2:00 AM 44 °F - 23 °F 30%  in 19 mi West 23.0 mph - -  
2:55 AM 44.6 °F 37.2 °F 19.4 °F 37% 30.30 in - West 17.3 mph - N/A   Clear
3:55 AM 44.6 °F 37.2 °F 19.4 °F 37% 30.30 in - West 17.3 mph - N/A   Clear
4:55 AM 44.6 °F 37.2 °F 15.8 °F 31% 30.30 in - West 17.3 mph - N/A   Clear
5:55 AM 44.6 °F 37.8 °F 8.6 °F 23% 30.30 in - West 15.0 mph - N/A   Clear
6:55 AM 44.6 °F 37.8 °F 8.6 °F 23% 30.30 in - West 15.0 mph - N/A   Clear
7:55 AM 44.6 °F 36.9 °F 6.8 °F 21% 30.27 in - West 18.4 mph - N/A   Clear
8:00 AM 45 °F - 7 °F 10%  in 19 mi West 18.4 mph - -  
8:55 AM 46.4 °F 38.3 °F 6.8 °F 20% 30.30 in - West 23.0 mph - N/A   Clear
9:55 AM 46.4 °F 38.7 °F 5.0 °F 18% 30.30 in - West 20.7 mph - N/A   Clear
10:55 AM 48.2 °F - 8.6 °F 20% 30.30 in - West 23.0 mph - N/A   Clear
11:55 AM 50.0 °F - 8.6 °F 19% 30.30 in - West 25.3 mph - N/A   Clear
12:55 PM 50.0 °F - 10.4 °F 20% 30.30 in - West 20.7 mph - N/A   Clear
1:55 PM 51.8 °F - 15.8 °F 24% 30.30 in - West 20.7 mph - N/A   Clear
2:55 PM 53.6 °F - 14.0 °F 21% 30.30 in - West 13.8 mph - N/A   Clear
3:55 PM 53.6 °F - 21.2 °F 28% 30.30 in - West 17.3 mph - N/A   Clear
4:55 PM 53.6 °F - 15.8 °F 22% 30.30 in - West 17.3 mph - N/A   Clear
5:55 PM 51.8 °F - 3.2 °F 14% 30.30 in - West 17.3 mph - N/A   Clear
6:55 PM 51.8 °F - -4.0 °F 10% 30.30 in - West 20.7 mph - N/A   Clear
7:55 PM 50.0 °F - -4.0 °F 11% 30.30 in - West 23.0 mph - N/A   Clear
8:00 PM 50 °F - -5 °F 4%  in 19 mi West 23.0 mph - -   Partly Cloudy
8:55 PM 50.0 °F - -0.4 °F 13% 30.33 in - West 23.0 mph - N/A   Clear
9:55 PM 48.2 °F - -5.8 °F 10% 30.30 in - South 23.0 mph - N/A   Clear
10:55 PM 50.0 °F - 3.2 °F 15% 30.30 in - South 27.6 mph - N/A   Clear
11:55 PM 48.2 °F - 1.4 °F 15% 30.30 in - South 28.8 mph - N/A   Clear